Аэропорт: Запорожье. Запорожье

ICAO: UKDE

METAR:
2018/11/19 10:00
UKDE 191000Z 06004MPS 030V100 CAVOK 04/M04 Q1024 R02R/CLRD70 NOSIG
METAR:
2018/07/21 03:48
TAF 
      AMD TAF 
      AMD UKDE 210346Z 2103/2115 24003MPS 9999 SCT033CB TX28/2112Z TN20/2103Z 
      TEMPO 2103/2105 VRB01MPS 
      TEMPO 2108/2112 -SHRA BKN020CB